Corbin, Kentucky, United States (40701)
Lat: 36.95N, Lon: 84.1W
Wx Zone: KYZ085
Local Info
Past Weather Observations for Today

NOTE: This archive is for the closest National Weather Service station to Corbin. Information may differ from the station used for current weather conditions.

Click here for Long-term Archive

Time Weather Temperature Dewpoint Humidity Pressure Winds Precip Visibility
21:53
Clear
77°F / 25°C 61°F / 16°C 57% 30.04 in
(1017 mb)
N 4.6 mph
(N 7 kph)
- 10SM
20:53
Clear
77°F / 25°C 61°F / 16°C 57% 30.01 in
(1016 mb)
Calm - 10SM
19:53
Clear
81°F / 27°C 57°F / 14°C 45% 30.01 in
(1016 mb)
NNW 3.5 mph
(NNW 6 kph)
- 10SM
18:53
Clear
84°F / 29°C 57°F / 14°C 40% 30.01 in
(1016 mb)
NW 5.8 mph
(NW 9 kph)
- 10SM
17:53
Partly Cloudy
88°F / 31°C 57°F / 14°C 35% 30.01 in
(1016 mb)
WNW 9.2 mph
(WNW 15 kph)
- 10SM
16:53
Clear
88°F / 31°C 57°F / 14°C 35% 30.01 in
(1016 mb)
Variable 4.6 mph
(Variable 7 kph)
- 10SM
15:53
Clear
90°F / 32°C 55°F / 13°C 31% 30.01 in
(1016 mb)
NW 8.1 mph
(NW 13 kph)
- 10SM
14:53
Clear
90°F / 32°C 57°F / 14°C 33% 30.04 in
(1017 mb)
WNW 15 mph
(WNW 24 kph)
- 10SM
13:53
Partly Cloudy
88°F / 31°C 61°F / 16°C 40% 30.04 in
(1017 mb)
WNW 4.6 mph
(WNW 7 kph)
- 10SM
12:53
Clear
88°F / 31°C 63°F / 17°C 43% 30.06 in
(1018 mb)
NW 11.5 mph
(NW 19 kph)
- 10SM
11:53
Partly Cloudy
84°F / 29°C 63°F / 17°C 48% 30.06 in
(1018 mb)
Variable 5.8 mph
(Variable 9 kph)
- 10SM
10:53
Partly Cloudy
82°F / 28°C 66°F / 19°C 58% 30.09 in
(1019 mb)
Calm - 10SM
09:53
Clear
79°F / 26°C 68°F / 20°C 70% 30.09 in
(1019 mb)
Calm - 10SM
08:53
Clear
75°F / 24°C 66°F / 19°C 74% 30.09 in
(1019 mb)
Calm - 10SM
07:53
Clear
72°F / 22°C 66°F / 19°C 83% 30.09 in
(1019 mb)
SSW 3.5 mph
(SSW 6 kph)
- 10SM
06:53
Clear
68°F / 20°C 64°F / 18°C 88% 30.06 in
(1018 mb)
S 3.5 mph
(S 6 kph)
- 10SM
06:10
Partly Cloudy
Fog And Mist
66°F / 19°C 64°F / 18°C 94% 30.06 in
(1018 mb)
Calm - 5SM
05:53
Mostly Cloudy
Fog And Mist
66°F / 19°C 64°F / 18°C 94% 30.06 in
(1018 mb)
Calm - 2SM
05:46
Mostly Cloudy
Fog And Mist
66°F / 19°C 64°F / 18°C 94% 30.06 in
(1018 mb)
Calm - 2 1/2SM
05:36
Partly Cloudy
Fog And Mist
66°F / 19°C 64°F / 18°C 94% 30.06 in
(1018 mb)
Calm - 3SM
05:31
Clear
Fog And Mist
66°F / 19°C 64°F / 18°C 94% 30.06 in
(1018 mb)
Calm - 2 1/2SM
04:53
Clear
66°F / 19°C 64°F / 18°C 94% 30.06 in
(1018 mb)
Calm - 7SM
03:53
Clear
Fog And Mist
66°F / 19°C 66°F / 19°C 100% 30.06 in
(1018 mb)
S 3.5 mph
(S 6 kph)
- 6SM
02:53
Clear
68°F / 20°C 66°F / 19°C 94% 30.06 in
(1018 mb)
Calm - 10SM
01:53
Clear
70°F / 21°C 66°F / 19°C 88% 30.06 in
(1018 mb)
Calm - 10SM
00:53
Partly Cloudy
72°F / 22°C 68°F / 20°C 88% 30.06 in
(1018 mb)
SW 3.5 mph
(SW 6 kph)
- 10SM
00:41
Partly Cloudy
72°F / 22°C 70°F / 21°C 94% 30.09 in
(1019 mb)
SSW 3.5 mph
(SSW 6 kph)
- 10SM
00:09
Mostly Cloudy
72°F / 22°C 70°F / 21°C 94% 30.06 in
(1018 mb)
SSW 4.6 mph
(SSW 7 kph)
- 9SM
00:04
Partly Cloudy
72°F / 22°C 70°F / 21°C 94% 30.09 in
(1019 mb)
SSW 4.6 mph
(SSW 7 kph)
- 9SM
Time Weather Temperature Dewpoint Humidity Pressure Winds Precip Visibility


Weather for websites

WeatherForYou.com, LLC is not responsible for any damages or problems caused by this service. Current weather conditions are obtained from the closest station including government and personal stations which may have varying degrees of accuracy. Weather forecasts are derived from the NOAA NDFD. Like all things, this site belongs to Jesus Christ... He just trusts us to maintain it. If you have any questions or comments email webmaster@weatherforyou.com

Copyright © 2016, WeatherForYou.com LLC. All rights reserved.